Regional Weather Roundup
Issued by NWS

Home | Current Version | Previous Version | Graphics & Text | Print | Product List | Glossary On
Versions: 1 2 3 4 5 6 7 8 9 10 11 12 13 14 15 16 17 18 19 20 21 22 23 24 25 26 27 28 29 30 31 32 33 34 35 36 37 38 39 40 41 42 43 44 45 46 47 48 49 50
000
ASUS43 KBIS 221310
RWRND

NORTH DAKOTA REGIONAL WEATHER ROUNDUP
NATIONAL WEATHER SERVICE BISMARCK ND
700 AM CST SAT NOV 22 2014

NOTE: "FAIR" INDICATES FEW OR NO CLOUDS BELOW 12,000 FEET WITH NO
SIGNIFICANT WEATHER AND/OR OBSTRUCTIONS TO VISIBILITY.


NDZ001>003-009>011-017-221400-
NORTHWEST NORTH DAKOTA

CITY           SKY/WX    TMP DP  RH WIND       PRES   REMARKS
WILLISTON      CLOUDY    30  26  85 CALM      29.45F
MINOT          FAIR      23  20  88 SE3       29.49F
MINOT AFB      CLEAR     20  20  98 SE5       29.48F WCI  14
$$

NDZ018>021-031>035-040>046-221400-
SOUTHWEST NORTH DAKOTA

CITY           SKY/WX    TMP DP  RH WIND       PRES   REMARKS
BISMARCK       CLEAR     24  22  91 E6        29.56F WCI  17
DICKINSON      CLOUDY    30  23  75 S8        29.46F
GARRISON         N/A     28  26  92 S3        29.50F
HETTINGER ARPT CLOUDY    23  19  85 CALM      29.51F
$$

NDZ004>008-012>016-024-026-027-054-221400-
NORTHEAST NORTH DAKOTA

CITY           SKY/WX    TMP DP  RH WIND       PRES   REMARKS
GRAND FORKS    PTCLDY    21  18  88 SE7       29.59F WCI  12
GRND FRKS AFB  CLEAR     22  22  98 S5        29.59F WCI  16
DEVILS LAKE    CLEAR     23  16  74 CALM      29.55F
$$

NDZ022-023-025-028>030-036>039-047>053-221400-
SOUTHEAST NORTH DAKOTA

CITY           SKY/WX    TMP DP  RH WIND       PRES   REMARKS
FARGO          CLEAR     24  20  84 S7        29.64F WCI  16
JAMESTOWN      CLEAR     22  20  92 S5        29.58F WCI  16
$$




USA.gov is the U.S. government's official web portal to all federal, state and local government web resources and services.